Date,TemperatureHighF,TemperatureAvgF,TemperatureLowF,DewpointHighF,DewpointAvgF,DewpointLowF,HumidityHigh,HumidityAvg,HumidityLow,PressureMaxIn,PressureMinIn,WindSpeedMaxMPH,WindSpeedAvgMPH,GustSpeedMaxMPH,PrecipitationSumIn
2013-3-1,30,28,22,30,26,20,100,95,85,29.89,29.67,12,6,22,0.01
2013-3-2,24,22,20,22,20,18,97,89,77,29.88,29.84,12,6,20,0.00
2013-3-3,24,20,18,18,17,16,97,89,75,29.89,29.81,9,4,16,0.02
2013-3-4,28,22,17,22,17,13,94,81,63,30.03,29.88,14,6,24,0.00
2013-3-5,34,26,21,23,21,17,92,81,61,30.11,29.97,8,3,15,0.00
2013-3-6,37,32,25,30,26,22,91,80,69,30.10,29.92,10,4,17,0.00
2013-3-7,35,31,26,28,23,21,84,73,60,30.22,30.10,13,6,24,0.00
2013-3-8,34,28,24,24,22,20,98,80,64,30.38,30.18,16,9,35,0.02
2013-3-9,46,33,20,28,23,19,100,70,45,30.42,30.29,7,1,9,0.00
2013-3-10,55,43,32,28,24,20,71,48,28,30.29,30.11,13,6,27,0.00
2013-3-11,51,46,42,46,32,23,90,58,42,30.12,29.79,17,8,35,0.00
2013-3-12,49,42,32,48,41,30,100,96,83,29.89,29.72,14,5,28,0.28
2013-3-13,36,30,22,31,25,14,99,81,59,29.93,29.82,15,4,24,0.02
2013-3-14,30,23,16,18,11,6,94,64,37,30.05,29.91,16,8,31,0.01
2013-3-15,33,27,19,28,21,11,86,76,65,30.05,29.75,10,5,22,0.00
2013-3-16,30,25,22,23,20,17,89,79,69,29.97,29.78,9,3,20,0.01
2013-3-17,29,22,16,19,16,14,92,79,58,30.34,29.96,12,3,18,0.00
2013-3-18,29,21,14,25,17,10,100,85,51,30.35,29.90,13,6,27,0.40
2013-3-19,39,30,24,36,28,16,100,90,68,29.89,29.69,12,5,25,0.05
2013-3-20,31,24,19,23,18,14,94,79,51,29.86,29.80,16,5,26,0.00
2013-3-21,27,20,15,19,12,7,88,72,45,29.86,29.74,10,3,16,0.02
2013-3-22,31,25,21,22,19,17,89,78,63,29.94,29.75,13,6,21,0.00
2013-3-23,34,29,25,23,21,19,87,73,57,29.99,29.90,15,6,25,0.00
2013-3-24,36,29,21,24,21,18,91,72,55,29.99,29.71,9,3,15,0.00
2013-3-25,39,32,28,27,24,21,86,72,54,29.71,29.54,10,3,20,0.00
2013-3-26,44,34,29,33,27,24,90,78,53,29.93,29.67,12,4,24,0.00
2013-3-27,43,33,28,32,28,23,99,81,47,30.05,29.91,14,5,22,0.01
2013-3-28,40,34,30,34,30,26,100,86,61,30.20,30.01,12,4,20,0.04
2013-3-29,43,37,32,33,30,26,91,76,57,30.20,30.12,8,3,16,0.00
2013-3-30,50,39,29,30,23,16,86,57,27,30.20,30.08,9,2,15,0.00
2013-3-31,48,39,32,41,31,21,100,77,51,30.09,29.68,13,4,22,0.37